QFA7545 YPPH-YPXM

Flight info

Callsign QFA7545
Flight time N/A
Altitude 36000
Route AVNEX H16 LM G209 XMX
Aircraft A319/M-SDE3FGHIRWY/LB1

Departure

Time 2026-05-06 16:56
Airport Perth International Airport (YPPH)

Arrival

Time N/A
Airport Christmas Island International Airport (YPXM)
Time Latitude Longitude Altitude Speed Heading
2026-05-06 16:47 -31.94148 115.97011 63 ft 0 kts 13°
2026-05-06 16:49 -31.94153 115.97009 57 ft 4 kts
2026-05-06 16:49 -31.94175 115.97008 57 ft 4 kts
2026-05-06 16:49 -31.94202 115.97009 60 ft 3 kts 347°
2026-05-06 16:50 -31.94210 115.97011 61 ft 0 kts 346°
2026-05-06 16:51 -31.94202 115.97002 56 ft 3 kts 303°
2026-05-06 16:52 -31.94204 115.96952 58 ft 9 kts 272°
2026-05-06 16:52 -31.94189 115.96875 56 ft 11 kts 284°
2026-05-06 16:52 -31.94214 115.96804 64 ft 11 kts 211°
2026-05-06 16:52 -31.94292 115.96779 65 ft 13 kts 193°
2026-05-06 16:53 -31.94386 115.96752 63 ft 15 kts 193°
2026-05-06 16:53 -31.94490 115.96712 61 ft 16 kts 222°
2026-05-06 16:53 -31.94490 115.96578 61 ft 18 kts 284°
2026-05-06 16:53 -31.94459 115.96435 59 ft 18 kts 284°
2026-05-06 16:54 -31.94426 115.96283 64 ft 20 kts 284°
2026-05-06 16:54 -31.94364 115.96128 64 ft 22 kts 319°
2026-05-06 16:54 -31.94228 115.96027 59 ft 23 kts 329°
2026-05-06 16:54 -31.94105 115.95944 64 ft 7 kts 338°
2026-05-06 16:55 -31.94073 115.95971 60 ft 0 kts 59°
2026-05-06 16:55 -31.94069 115.95979 59 ft 11 kts 59°
2026-05-06 16:55 -31.93885 115.96339 59 ft 90 kts 59°
2026-05-06 16:55 -31.93439 115.97203 88 ft 152 kts 59°
2026-05-06 16:56 -31.92888 115.98245 677 ft 150 kts 59°
2026-05-06 16:56 -31.92315 115.99272 1417 ft 150 kts 53°
2026-05-06 16:56 -31.91346 115.99773 2032 ft 164 kts 12°
2026-05-06 16:56 -31.90116 115.99580 2248 ft 193 kts 358°
2026-05-06 16:57 -31.88715 115.99253 2536 ft 213 kts 356°
2026-05-06 16:57 -31.87278 115.98741 3251 ft 225 kts 334°
2026-05-06 16:57 -31.86259 115.97261 3851 ft 251 kts 294°
2026-05-06 16:57 -31.85856 115.95139 4173 ft 279 kts 282°
2026-05-06 16:58 -31.85589 115.92854 4985 ft 283 kts 279°
2026-05-06 16:58 -31.85354 115.90550 5901 ft 283 kts 277°
2026-05-06 16:58 -31.85116 115.88252 6769 ft 285 kts 276°
2026-05-06 16:58 -31.84860 115.85928 7574 ft 287 kts 276°
2026-05-06 16:59 -31.84588 115.83597 8358 ft 289 kts 277°
2026-05-06 16:59 -31.84299 115.81238 9142 ft 292 kts 277°
2026-05-06 16:59 -31.84001 115.78861 9899 ft 295 kts 277°
2026-05-06 16:59 -31.83694 115.76440 10397 ft 309 kts 277°
2026-05-06 17:00 -31.83409 115.73838 10568 ft 331 kts 271°
2026-05-06 17:00 -31.83455 115.72026 10826 ft 338 kts 262°
2026-05-06 17:00 -31.84226 115.68425 11594 ft 343 kts 250°
2026-05-06 17:00 -31.84709 115.66652 12016 ft 345 kts 251°
2026-05-06 17:01 -31.85442 115.63947 12648 ft 349 kts 251°
2026-05-06 17:01 -31.86180 115.61209 13283 ft 353 kts 251°
2026-05-06 17:01 -31.86924 115.58446 13899 ft 356 kts 251°
2026-05-06 17:01 -31.87674 115.55656 14478 ft 360 kts 250°
2026-05-06 17:02 -31.88429 115.52838 15036 ft 363 kts 250°
2026-05-06 17:02 -31.89191 115.49993 15601 ft 365 kts 250°
2026-05-06 17:02 -31.89769 115.47071 16139 ft 371 kts 264°
2026-05-06 17:02 -31.89493 115.44043 16663 ft 378 kts 286°
2026-05-06 17:03 -31.88279 115.41286 17176 ft 385 kts 308°
2026-05-06 17:03 -31.86260 115.39222 17702 ft 389 kts 330°
2026-05-06 17:03 -31.83744 115.38041 18222 ft 391 kts 343°
2026-05-06 17:03 -31.81139 115.37072 18741 ft 395 kts 343°
2026-05-06 17:04 -31.78502 115.36109 19192 ft 398 kts 343°
2026-05-06 17:04 -31.75851 115.35150 19662 ft 401 kts 345°
2026-05-06 17:04 -31.73109 115.34538 20138 ft 402 kts 356°
2026-05-06 17:04 -31.70309 115.34511 20615 ft 403 kts
2026-05-06 17:05 -31.67523 115.34956 21103 ft 404 kts 13°
2026-05-06 17:05 -31.64825 115.35871 21577 ft 405 kts 23°
2026-05-06 17:05 -31.62280 115.37276 22045 ft 405 kts 29°
2026-05-06 17:05 -31.59761 115.38808 22509 ft 408 kts 29°
2026-05-06 17:06 -31.57260 115.40328 22954 ft 410 kts 29°
2026-05-06 17:06 -31.54718 115.41871 23401 ft 413 kts 29°
2026-05-06 17:06 -31.52160 115.43422 23837 ft 415 kts 29°
2026-05-06 17:06 -31.49587 115.44981 24227 ft 417 kts 29°
2026-05-06 17:07 -31.47003 115.46541 24582 ft 420 kts 28°
2026-05-06 17:07 -31.44400 115.48113 24935 ft 422 kts 28°
2026-05-06 17:07 -31.41783 115.49695 25279 ft 424 kts 28°
2026-05-06 17:07 -31.39157 115.51281 25627 ft 426 kts 28°
2026-05-06 17:08 -31.36517 115.52876 25972 ft 428 kts 28°
2026-05-06 17:08 -31.33864 115.54480 26312 ft 430 kts 28°
2026-05-06 17:08 -31.31197 115.56088 26650 ft 432 kts 28°
2026-05-06 17:08 -31.28519 115.57704 26982 ft 434 kts 28°
2026-05-06 17:09 -31.25826 115.59332 27316 ft 436 kts 28°
2026-05-06 17:09 -31.23125 115.60964 27646 ft 438 kts 28°
2026-05-06 17:09 -31.20409 115.62603 27982 ft 440 kts 28°
2026-05-06 17:09 -31.17677 115.64249 28309 ft 443 kts 28°
2026-05-06 17:10 -31.14933 115.65896 28634 ft 445 kts 28°
2026-05-06 17:10 -31.12174 115.67547 28949 ft 447 kts 28°
2026-05-06 17:10 -31.09404 115.69208 29259 ft 449 kts 28°
2026-05-06 17:10 -31.06623 115.70877 29563 ft 451 kts 28°
2026-05-06 17:11 -31.03823 115.72558 29859 ft 453 kts 28°
2026-05-06 17:11 -31.01016 115.74242 30154 ft 455 kts 28°
2026-05-06 17:11 -30.98192 115.75932 30437 ft 457 kts 28°
2026-05-06 17:11 -30.95353 115.77627 30682 ft 459 kts 28°
2026-05-06 17:12 -30.92505 115.79327 30918 ft 461 kts 28°
2026-05-06 17:12 -30.89642 115.81035 31150 ft 463 kts 27°
2026-05-06 17:12 -30.86683 115.82521 31364 ft 465 kts 18°
2026-05-06 17:12 -30.83531 115.83366 31666 ft 465 kts
2026-05-06 17:13 -30.80300 115.83535 31971 ft 464 kts 356°
2026-05-06 17:13 -30.77111 115.83021 32279 ft 463 kts 345°
2026-05-06 17:13 -30.74063 115.81838 32581 ft 461 kts 334°
2026-05-06 17:13 -30.71195 115.80180 32884 ft 460 kts 332°
2026-05-06 17:14 -30.68378 115.78524 33194 ft 460 kts 332°
2026-05-06 17:14 -30.65521 115.76857 33515 ft 459 kts 332°
2026-05-06 17:14 -30.62658 115.75197 33840 ft 459 kts 332°
2026-05-06 17:14 -30.59800 115.73546 34178 ft 458 kts 332°
2026-05-06 17:15 -30.56955 115.71902 34488 ft 457 kts 332°
2026-05-06 17:15 -30.54107 115.70255 34768 ft 457 kts 331°
2026-05-06 17:15 -30.51264 115.68605 35030 ft 456 kts 331°
2026-05-06 17:15 -30.48431 115.66960 35282 ft 456 kts 331°
2026-05-06 17:16 -30.45593 115.65315 35523 ft 456 kts 331°
2026-05-06 17:16 -30.42757 115.63676 35760 ft 455 kts 331°
2026-05-06 17:16 -30.39921 115.62032 35994 ft 455 kts 330°
2026-05-06 17:16 -30.37090 115.60392 36228 ft 455 kts 330°
2026-05-06 17:17 -30.34260 115.58755 36370 ft 455 kts 330°
2026-05-06 17:17 -30.28599 115.55488 36396 ft 454 kts 330°
2026-05-06 17:18 -30.22939 115.52226 36391 ft 454 kts 330°
2026-05-06 17:18 -30.17280 115.48970 36388 ft 454 kts 330°
2026-05-06 17:19 -30.11663 115.45746 36385 ft 454 kts 330°
2026-05-06 17:19 -30.06005 115.42492 36378 ft 454 kts 330°
2026-05-06 17:20 -30.00351 115.39235 36374 ft 454 kts 330°
2026-05-06 17:20 -29.94692 115.35992 36366 ft 454 kts 330°
2026-05-06 17:21 -29.89025 115.32758 36361 ft 454 kts 330°
2026-05-06 17:21 -29.83362 115.29521 36359 ft 454 kts 330°
2026-05-06 17:22 -29.77697 115.26285 36360 ft 454 kts 330°
2026-05-06 17:22 -29.72075 115.23078 36355 ft 454 kts 330°
2026-05-06 17:23 -29.66413 115.19848 36349 ft 454 kts 330°
2026-05-06 17:23 -29.60740 115.16627 36350 ft 454 kts 330°
2026-05-06 17:24 -29.55072 115.13407 36342 ft 454 kts 330°
2026-05-06 17:24 -29.49399 115.10198 36340 ft 454 kts 330°
2026-05-06 17:25 -29.43727 115.06988 36336 ft 454 kts 329°
2026-05-06 17:25 -29.38064 115.03778 36335 ft 454 kts 329°
2026-05-06 17:26 -29.32399 115.00573 36330 ft 454 kts 329°
2026-05-06 17:26 -29.26733 114.97372 36325 ft 454 kts 329°
2026-05-06 17:27 -29.21099 114.94192 36326 ft 454 kts 329°
2026-05-06 17:27 -29.15437 114.91003 36325 ft 454 kts 329°
2026-05-06 17:28 -29.09763 114.87821 36322 ft 454 kts 329°
2026-05-06 17:28 -29.04089 114.84639 36309 ft 454 kts 329°
2026-05-06 17:29 -28.98419 114.81453 36302 ft 454 kts 329°
2026-05-06 17:29 -28.92742 114.78276 36289 ft 454 kts 329°
2026-05-06 17:30 -28.87061 114.75105 36286 ft 454 kts 329°
2026-05-06 17:30 -28.81374 114.71959 36287 ft 456 kts 333°
2026-05-06 17:31 -28.75160 114.70220 36283 ft 467 kts 351°
2026-05-06 17:31 -28.68678 114.69593 36284 ft 467 kts 351°
2026-05-06 17:32 -28.62236 114.68957 36290 ft 468 kts 351°
2026-05-06 17:32 -28.55743 114.68314 36294 ft 468 kts 351°
2026-05-06 17:33 -28.49241 114.67678 36299 ft 469 kts 350°
2026-05-06 17:33 -28.42737 114.67035 36302 ft 469 kts 350°
2026-05-06 17:34 -28.36227 114.66393 36297 ft 470 kts 350°
2026-05-06 17:34 -28.29703 114.65755 36300 ft 470 kts 350°
2026-05-06 17:35 -28.23188 114.65118 36301 ft 470 kts 350°
2026-05-06 17:35 -28.16659 114.64478 36293 ft 470 kts 350°
2026-05-06 17:36 -28.06874 114.63530 36291 ft 471 kts 350°
2026-05-06 17:36 -28.00343 114.62894 36285 ft 471 kts 349°
2026-05-06 17:37 -27.93818 114.62255 36282 ft 471 kts 349°
2026-05-06 17:37 -27.87273 114.61624 36280 ft 472 kts 349°
2026-05-06 17:38 -27.80775 114.60995 36278 ft 472 kts 349°
2026-05-06 17:38 -27.74233 114.60352 36275 ft 472 kts 349°
2026-05-06 17:39 -27.67683 114.59719 36273 ft 473 kts 349°
2026-05-06 17:39 -27.61120 114.59091 36268 ft 473 kts 349°
2026-05-06 17:40 -27.54563 114.58461 36263 ft 473 kts 349°
2026-05-06 17:40 -27.48000 114.57827 36258 ft 474 kts 349°
2026-05-06 17:41 -27.41430 114.57194 36256 ft 474 kts 349°
2026-05-06 17:41 -27.34855 114.56562 36254 ft 474 kts 348°
2026-05-06 17:42 -27.28314 114.55926 36254 ft 475 kts 348°
2026-05-06 17:42 -27.21724 114.55285 36253 ft 475 kts 348°
2026-05-06 17:43 -27.15132 114.54651 36248 ft 476 kts 348°
2026-05-06 17:43 -27.08533 114.54026 36244 ft 476 kts 348°
2026-05-06 17:44 -27.01930 114.53398 36242 ft 476 kts 348°
2026-05-06 17:44 -26.95323 114.52766 36236 ft 477 kts 348°
2026-05-06 17:45 -26.88709 114.52140 36236 ft 477 kts 348°
2026-05-06 17:45 -26.82090 114.51509 36229 ft 478 kts 348°
2026-05-06 17:46 -26.75460 114.50879 36226 ft 478 kts 348°
2026-05-06 17:46 -26.68830 114.50244 36228 ft 479 kts 348°
2026-05-06 17:47 -26.62233 114.49618 36227 ft 479 kts 348°
2026-05-06 17:47 -26.55589 114.48990 36224 ft 479 kts 347°
2026-05-06 17:48 -26.48945 114.48353 36222 ft 479 kts 347°
2026-05-06 17:48 -26.42301 114.47721 36220 ft 479 kts 347°
2026-05-06 17:49 -26.36775 114.47204 36206 ft 480 kts 347°
2026-05-06 17:49 -26.28999 114.46473 36206 ft 480 kts 347°
2026-05-06 17:50 -26.22343 114.45842 36201 ft 480 kts 347°
2026-05-06 17:50 -26.15722 114.45218 36194 ft 481 kts 347°
2026-05-06 17:51 -26.09051 114.44589 36194 ft 481 kts 347°
2026-05-06 17:51 -26.02379 114.43957 36187 ft 481 kts 347°
2026-05-06 17:52 -25.95711 114.43330 36186 ft 481 kts 347°
2026-05-06 17:52 -25.89037 114.42702 36180 ft 481 kts 346°
2026-05-06 17:53 -25.83482 114.42181 36177 ft 482 kts 346°
2026-05-06 17:53 -25.76795 114.41561 36178 ft 482 kts 346°
2026-05-06 17:54 -25.70115 114.40939 36172 ft 482 kts 346°
2026-05-06 17:54 -25.63471 114.40313 36167 ft 482 kts 346°
2026-05-06 17:55 -25.56788 114.39690 36164 ft 482 kts 346°
2026-05-06 17:55 -25.50094 114.39072 36158 ft 483 kts 346°
2026-05-06 17:56 -25.43393 114.38441 36155 ft 483 kts 346°
2026-05-06 17:56 -25.36692 114.37814 36154 ft 483 kts 346°
2026-05-06 17:57 -25.29989 114.37195 36148 ft 483 kts 346°
2026-05-06 17:57 -25.23283 114.36574 36147 ft 484 kts 346°
2026-05-06 17:58 -25.16574 114.35952 36146 ft 484 kts 346°
2026-05-06 17:58 -25.09860 114.35323 36143 ft 484 kts 346°
2026-05-06 17:59 -25.03185 114.34705 36140 ft 484 kts 346°
2026-05-06 17:59 -24.96466 114.34087 36129 ft 484 kts 346°
2026-05-06 18:00 -24.89753 114.33472 36133 ft 485 kts 346°
2026-05-06 18:00 -24.83022 114.32853 36127 ft 485 kts 346°
2026-05-06 18:01 -24.76297 114.32243 36122 ft 485 kts 346°
2026-05-06 18:01 -24.69573 114.31622 36117 ft 485 kts 345°
2026-05-06 18:02 -24.62851 114.30997 36115 ft 485 kts 346°
2026-05-06 18:02 -24.56124 114.30386 36112 ft 485 kts 346°
2026-05-06 18:03 -24.49402 114.29769 36105 ft 485 kts 346°
2026-05-06 18:03 -24.42682 114.29157 36102 ft 485 kts 346°
2026-05-06 18:04 -24.36000 114.28546 36095 ft 484 kts 345°
2026-05-06 18:04 -24.29283 114.27924 36096 ft 484 kts 345°
2026-05-06 18:05 -24.22558 114.27307 36102 ft 484 kts 346°
2026-05-06 18:05 -24.15841 114.26694 36097 ft 484 kts 346°
2026-05-06 18:06 -24.09127 114.26083 36096 ft 484 kts 346°
2026-05-06 18:06 -24.02415 114.25471 36090 ft 484 kts 346°
2026-05-06 18:07 -23.95703 114.24861 36085 ft 484 kts 346°
2026-05-06 18:07 -23.88994 114.24257 36080 ft 483 kts 346°
2026-05-06 18:08 -23.82333 114.23652 36075 ft 483 kts 346°
2026-05-06 18:08 -23.75638 114.23047 36072 ft 483 kts 345°
2026-05-06 18:09 -23.68940 114.22442 36074 ft 483 kts 346°
2026-05-06 18:09 -23.62245 114.21836 36070 ft 483 kts 345°
2026-05-06 18:10 -23.55550 114.21232 36064 ft 483 kts 345°
2026-05-06 18:10 -23.48857 114.20633 36068 ft 482 kts 345°
2026-05-06 18:11 -23.42166 114.20025 36064 ft 482 kts 345°
2026-05-06 18:11 -23.35478 114.19412 36063 ft 482 kts 345°
2026-05-06 18:12 -23.28792 114.18810 36056 ft 482 kts 345°
2026-05-06 18:12 -23.22106 114.18207 36054 ft 482 kts 345°
2026-05-06 18:13 -23.15412 114.17606 36053 ft 482 kts 345°
2026-05-06 18:13 -23.08724 114.17010 36048 ft 482 kts 345°
2026-05-06 18:14 -23.02030 114.16414 36043 ft 482 kts 345°
2026-05-06 18:14 -22.95341 114.15819 36044 ft 482 kts 345°
2026-05-06 18:15 -22.88648 114.15219 36041 ft 482 kts 345°
2026-05-06 18:15 -22.81998 114.14619 36039 ft 483 kts 345°
2026-05-06 18:16 -22.75302 114.14021 36035 ft 483 kts 345°
2026-05-06 18:16 -22.68611 114.13425 36039 ft 483 kts 345°
2026-05-06 18:17 -22.61912 114.12829 36038 ft 483 kts 345°
2026-05-06 18:17 -22.55216 114.12232 36037 ft 483 kts 345°
2026-05-06 18:18 -22.48517 114.11637 36037 ft 483 kts 345°
2026-05-06 18:18 -22.41812 114.11045 36036 ft 483 kts 344°
2026-05-06 18:19 -22.35107 114.10447 36034 ft 483 kts 344°
2026-05-06 18:19 -22.28411 114.09825 36031 ft 479 kts 341°
2026-05-06 18:20 -22.25198 114.09116 36031 ft 464 kts 331°
2026-05-06 18:20 -22.22258 114.07950 36029 ft 449 kts 322°
2026-05-06 18:20 -22.19560 114.06358 36028 ft 435 kts 314°
2026-05-06 18:20 -22.17115 114.04488 36028 ft 430 kts 311°
2026-05-06 18:21 -22.12249 114.00714 36026 ft 431 kts 312°
2026-05-06 18:21 -22.07368 113.96957 36027 ft 431 kts 312°
2026-05-06 18:22 -22.02488 113.93193 36026 ft 431 kts 312°
2026-05-06 18:22 -21.97615 113.89428 36024 ft 431 kts 312°
2026-05-06 18:23 -21.92741 113.85674 36021 ft 431 kts 312°
2026-05-06 18:23 -21.87867 113.81920 36017 ft 431 kts 312°
2026-05-06 18:24 -21.82995 113.78163 36020 ft 431 kts 311°
2026-05-06 18:24 -21.78125 113.74417 36019 ft 431 kts 312°
2026-05-06 18:25 -21.73275 113.70700 36019 ft 431 kts 312°
2026-05-06 18:25 -21.68360 113.66940 36021 ft 430 kts 312°
2026-05-06 18:26 -21.63520 113.63227 36017 ft 430 kts 312°
2026-05-06 18:26 -21.58652 113.59487 36019 ft 430 kts 312°
2026-05-06 18:27 -21.53783 113.55755 36019 ft 430 kts 312°
2026-05-06 18:27 -21.48917 113.52032 36018 ft 430 kts 312°
2026-05-06 18:28 -21.44044 113.48308 36024 ft 430 kts 312°
2026-05-06 18:28 -21.39172 113.44597 36021 ft 429 kts 312°
2026-05-06 18:29 -21.34307 113.40885 36027 ft 429 kts 312°
2026-05-06 18:29 -21.29445 113.37169 36021 ft 429 kts 312°